Time,TemperatureF,DewpointF,PressureIn,WindDirection,WindDirectionDegrees,WindSpeedMPH,WindSpeedGustMPH,Humidity,HourlyPrecipIn,Conditions,Clouds,dailyrainin,SoftwareType,DateUTC
2013-08-04 00:01:00,80.4,56.0,27.34,ESE,112,0.0,0.0,44,0.00,,,0.00,Rainwise IP-100,2013-08-04 07:01:00,
2013-08-04 00:06:00,80.6,56.0,27.34,ESE,112,0.0,0.0,43,0.00,,,0.00,Rainwise IP-100,2013-08-04 07:06:00,
2013-08-04 00:11:00,80.8,56.0,27.34,ESE,112,0.0,0.0,43,0.00,,,0.00,Rainwise IP-100,2013-08-04 07:11:00,
2013-08-04 00:16:00,81.0,56.0,27.34,ESE,112,0.0,0.0,43,0.00,,,0.00,Rainwise IP-100,2013-08-04 07:16:00,
2013-08-04 00:21:00,81.1,56.0,27.34,ESE,112,0.0,0.0,43,0.00,,,0.00,Rainwise IP-100,2013-08-04 07:21:00,
2013-08-04 00:26:00,81.0,56.0,27.34,ESE,112,0.0,0.0,43,0.00,,,0.00,Rainwise IP-100,2013-08-04 07:26:00,
2013-08-04 00:31:00,80.8,56.0,27.34,ESE,112,0.0,0.0,43,0.00,,,0.00,Rainwise IP-100,2013-08-04 07:31:00,
2013-08-04 00:36:00,80.6,56.0,27.34,ESE,112,0.0,0.0,43,0.00,,,0.00,Rainwise IP-100,2013-08-04 07:36:00,
2013-08-04 00:41:00,80.4,56.0,27.34,ESE,112,0.0,0.0,44,0.00,,,0.00,Rainwise IP-100,2013-08-04 07:41:00,
2013-08-04 00:46:00,80.2,56.0,27.34,ESE,112,0.0,0.0,44,0.00,,,0.00,Rainwise IP-100,2013-08-04 07:46:00,
2013-08-04 00:51:00,80.0,56.0,27.33,ESE,112,0.0,0.0,45,0.00,,,0.00,Rainwise IP-100,2013-08-04 07:51:00,
2013-08-04 00:56:00,79.8,56.0,27.33,ESE,112,0.0,0.0,45,0.00,,,0.00,Rainwise IP-100,2013-08-04 07:56:00,
2013-08-04 01:01:00,79.6,56.0,27.33,ESE,112,0.0,0.0,45,0.00,,,0.00,Rainwise IP-100,2013-08-04 08:01:00,
2013-08-04 01:06:00,79.5,56.0,27.33,ESE,112,0.0,0.0,45,0.00,,,0.00,Rainwise IP-100,2013-08-04 08:06:00,
2013-08-04 01:11:00,79.6,57.0,27.32,ESE,112,0.0,0.0,46,0.00,,,0.00,Rainwise IP-100,2013-08-04 08:11:00,
2013-08-04 01:16:00,79.6,57.0,27.32,ESE,112,0.0,0.0,46,0.00,,,0.00,Rainwise IP-100,2013-08-04 08:16:00,
2013-08-04 01:21:00,79.5,57.0,27.32,ESE,112,0.0,0.0,46,0.00,,,0.00,Rainwise IP-100,2013-08-04 08:21:00,
2013-08-04 01:26:00,79.4,56.0,27.32,ESE,112,0.0,0.0,46,0.00,,,0.00,Rainwise IP-100,2013-08-04 08:26:00,
2013-08-04 01:31:00,79.3,56.0,27.32,ESE,112,0.0,0.0,46,0.00,,,0.00,Rainwise IP-100,2013-08-04 08:31:00,
2013-08-04 01:36:00,79.2,56.0,27.32,ESE,112,0.0,0.0,46,0.00,,,0.00,Rainwise IP-100,2013-08-04 08:36:00,
2013-08-04 01:41:00,79.1,56.0,27.32,ESE,112,0.0,0.0,46,0.00,,,0.00,Rainwise IP-100,2013-08-04 08:41:00,
2013-08-04 01:46:00,79.0,56.0,27.32,ESE,112,0.0,0.0,46,0.00,,,0.00,Rainwise IP-100,2013-08-04 08:46:00,
2013-08-04 01:51:00,78.8,56.0,27.32,ESE,112,0.0,0.0,46,0.00,,,0.00,Rainwise IP-100,2013-08-04 08:51:00,
2013-08-04 01:56:00,78.5,56.0,27.31,ESE,112,0.0,0.0,46,0.00,,,0.00,Rainwise IP-100,2013-08-04 08:56:00,
2013-08-04 02:01:00,78.2,56.0,27.32,ESE,112,0.0,0.0,47,0.00,,,0.00,Rainwise IP-100,2013-08-04 09:01:00,
2013-08-04 02:06:00,77.8,56.0,27.32,ESE,112,0.0,0.0,48,0.00,,,0.00,Rainwise IP-100,2013-08-04 09:06:00,
2013-08-04 02:11:00,77.5,56.0,27.32,ESE,112,0.0,0.0,48,0.00,,,0.00,Rainwise IP-100,2013-08-04 09:11:00,
2013-08-04 02:16:00,77.1,56.0,27.32,ESE,112,0.0,0.0,49,0.00,,,0.00,Rainwise IP-100,2013-08-04 09:16:00,
2013-08-04 02:21:00,76.9,57.0,27.32,ESE,112,0.0,0.0,50,0.00,,,0.00,Rainwise IP-100,2013-08-04 09:21:00,
2013-08-04 02:26:00,76.6,56.0,27.32,ESE,112,0.0,0.0,50,0.00,,,0.00,Rainwise IP-100,2013-08-04 09:26:00,
2013-08-04 02:31:00,76.4,56.0,27.32,ESE,112,0.0,0.0,50,0.00,,,0.00,Rainwise IP-100,2013-08-04 09:31:00,
2013-08-04 02:36:00,76.2,56.0,27.33,ESE,112,0.0,0.0,51,0.00,,,0.00,Rainwise IP-100,2013-08-04 09:36:00,
2013-08-04 02:41:00,75.9,56.0,27.33,ESE,112,0.0,0.0,51,0.00,,,0.00,Rainwise IP-100,2013-08-04 09:41:00,
2013-08-04 02:46:00,75.7,56.0,27.32,ESE,112,0.0,0.0,52,0.00,,,0.00,Rainwise IP-100,2013-08-04 09:46:00,
2013-08-04 02:51:00,76.0,57.0,27.33,ESE,112,0.0,0.0,52,0.00,,,0.00,Rainwise IP-100,2013-08-04 09:51:00,
2013-08-04 02:56:00,76.7,57.0,27.33,ESE,112,0.0,0.0,51,0.00,,,0.00,Rainwise IP-100,2013-08-04 09:56:00,
2013-08-04 03:01:00,77.2,57.0,27.32,ESE,112,0.0,0.0,50,0.00,,,0.00,Rainwise IP-100,2013-08-04 10:01:00,
2013-08-04 03:06:00,77.5,57.0,27.33,ESE,112,0.0,0.0,50,0.00,,,0.00,Rainwise IP-100,2013-08-04 10:06:00,
2013-08-04 03:11:00,77.7,57.0,27.33,ESE,112,0.0,0.0,49,0.00,,,0.00,Rainwise IP-100,2013-08-04 10:11:00,
2013-08-04 03:16:00,77.6,57.0,27.33,ESE,112,0.0,0.0,49,0.00,,,0.00,Rainwise IP-100,2013-08-04 10:16:00,
2013-08-04 03:21:00,77.4,57.0,27.33,ESE,112,0.0,0.0,49,0.00,,,0.00,Rainwise IP-100,2013-08-04 10:21:00,
2013-08-04 03:26:00,77.4,57.0,27.33,ESE,112,0.0,0.0,50,0.00,,,0.00,Rainwise IP-100,2013-08-04 10:26:00,
2013-08-04 03:31:00,77.3,57.0,27.33,ESE,112,0.0,0.0,50,0.00,,,0.00,Rainwise IP-100,2013-08-04 10:31:00,
2013-08-04 03:36:00,77.3,57.0,27.33,ESE,112,0.0,0.0,51,0.00,,,0.00,Rainwise IP-100,2013-08-04 10:36:00,
2013-08-04 03:41:00,77.6,58.0,27.33,ESE,112,0.0,1.0,51,0.00,,,0.00,Rainwise IP-100,2013-08-04 10:41:00,
2013-08-04 03:46:00,77.8,58.0,27.32,ESE,112,0.0,0.0,51,0.00,,,0.00,Rainwise IP-100,2013-08-04 10:46:00,
2013-08-04 03:51:00,77.7,58.0,27.33,ESE,112,0.0,0.0,51,0.00,,,0.00,Rainwise IP-100,2013-08-04 10:51:00,
2013-08-04 03:56:00,77.7,58.0,27.33,ESE,112,0.0,0.0,51,0.00,,,0.00,Rainwise IP-100,2013-08-04 10:56:00,
2013-08-04 04:01:00,77.8,58.0,27.33,ESE,112,0.0,0.0,51,0.00,,,0.00,Rainwise IP-100,2013-08-04 11:01:00,
2013-08-04 04:06:00,77.9,58.0,27.33,ESE,112,0.0,0.0,51,0.00,,,0.00,Rainwise IP-100,2013-08-04 11:06:00,
2013-08-04 04:11:00,77.9,58.0,27.34,ESE,112,0.0,0.0,51,0.00,,,0.00,Rainwise IP-100,2013-08-04 11:11:00,
2013-08-04 04:16:00,77.9,58.0,27.34,ESE,112,0.0,0.0,51,0.00,,,0.00,Rainwise IP-100,2013-08-04 11:16:00,
2013-08-04 04:21:00,77.8,58.0,27.34,ESE,112,0.0,0.0,51,0.00,,,0.00,Rainwise IP-100,2013-08-04 11:21:00,
2013-08-04 04:26:00,77.6,58.0,27.34,ESE,112,0.0,0.0,51,0.00,,,0.00,Rainwise IP-100,2013-08-04 11:26:00,
2013-08-04 04:31:00,77.5,58.0,27.34,ESE,112,0.0,0.0,51,0.00,,,0.00,Rainwise IP-100,2013-08-04 11:31:00,
2013-08-04 04:36:00,77.6,58.0,27.34,ESE,112,0.0,0.0,51,0.00,,,0.00,Rainwise IP-100,2013-08-04 11:36:00,
2013-08-04 04:41:00,77.6,58.0,27.34,ESE,112,0.0,0.0,51,0.00,,,0.00,Rainwise IP-100,2013-08-04 11:41:00,
2013-08-04 04:46:00,77.6,58.0,27.35,ESE,112,0.0,0.0,51,0.00,,,0.00,Rainwise IP-100,2013-08-04 11:46:00,
2013-08-04 04:51:00,77.5,58.0,27.34,ESE,112,0.0,0.0,51,0.00,,,0.00,Rainwise IP-100,2013-08-04 11:51:00,
2013-08-04 04:56:00,77.5,59.0,27.35,ESE,112,0.0,0.0,52,0.00,,,0.00,Rainwise IP-100,2013-08-04 11:56:00,
2013-08-04 05:01:00,77.5,59.0,27.35,ESE,112,0.0,0.0,52,0.00,,,0.00,Rainwise IP-100,2013-08-04 12:01:00,
2013-08-04 05:06:00,77.7,58.0,27.35,ESE,112,0.0,0.0,51,0.00,,,0.00,Rainwise IP-100,2013-08-04 12:06:00,
2013-08-04 05:11:00,77.9,58.0,27.35,ESE,112,0.0,0.0,51,0.00,,,0.00,Rainwise IP-100,2013-08-04 12:11:00,
2013-08-04 05:16:00,78.0,58.0,27.34,East,90,0.0,0.0,50,0.00,,,0.00,Rainwise IP-100,2013-08-04 12:16:00,
2013-08-04 05:21:00,78.4,57.0,27.34,NNE,22,0.0,2.0,49,0.00,,,0.00,Rainwise IP-100,2013-08-04 12:21:00,
2013-08-04 05:26:00,79.3,58.0,27.34,NE,45,0.0,6.0,49,0.00,,,0.00,Rainwise IP-100,2013-08-04 12:26:00,
2013-08-04 05:31:00,80.0,60.0,27.34,NNE,22,1.2,3.0,51,0.00,,,0.00,Rainwise IP-100,2013-08-04 12:31:00,
2013-08-04 05:36:00,79.7,61.0,27.34,NNE,22,0.0,5.0,54,0.00,,,0.00,Rainwise IP-100,2013-08-04 12:36:00,
2013-08-04 05:41:00,79.2,62.0,27.35,NNE,22,0.0,4.0,55,0.00,,,0.00,Rainwise IP-100,2013-08-04 12:41:00,
2013-08-04 05:46:00,79.3,62.0,27.35,SSE,157,1.2,3.0,55,0.00,,,0.00,Rainwise IP-100,2013-08-04 12:46:00,
2013-08-04 05:51:00,79.3,62.0,27.35,ESE,112,0.0,4.0,55,0.00,,,0.00,Rainwise IP-100,2013-08-04 12:51:00,
2013-08-04 05:56:00,79.2,62.0,27.36,ESE,112,0.0,1.0,55,0.00,,,0.00,Rainwise IP-100,2013-08-04 12:56:00,
2013-08-04 06:01:00,79.0,62.0,27.36,ENE,67,0.0,0.0,56,0.00,,,0.00,Rainwise IP-100,2013-08-04 13:01:00,
2013-08-04 06:06:00,78.9,62.0,27.36,ENE,67,0.0,1.0,57,0.00,,,0.00,Rainwise IP-100,2013-08-04 13:06:00,
2013-08-04 06:11:00,78.9,62.0,27.36,ENE,67,0.0,1.0,56,0.00,,,0.00,Rainwise IP-100,2013-08-04 13:11:00,
2013-08-04 06:16:00,79.1,62.0,27.36,ENE,67,0.0,2.0,56,0.00,,,0.00,Rainwise IP-100,2013-08-04 13:16:00,
2013-08-04 06:21:00,79.4,62.0,27.36,ENE,67,0.0,1.0,56,0.00,,,0.00,Rainwise IP-100,2013-08-04 13:21:00,
2013-08-04 06:26:00,79.5,62.0,27.37,ENE,67,0.0,0.0,56,0.00,,,0.00,Rainwise IP-100,2013-08-04 13:26:00,
2013-08-04 06:31:00,79.7,62.0,27.37,NNW,337,0.0,3.0,56,0.00,,,0.00,Rainwise IP-100,2013-08-04 13:31:00,
2013-08-04 06:36:00,80.0,62.0,27.38,NNW,337,0.0,1.0,54,0.00,,,0.00,Rainwise IP-100,2013-08-04 13:36:00,
2013-08-04 06:41:00,80.7,61.0,27.38,ESE,112,1.6,3.0,52,0.00,,,0.00,Rainwise IP-100,2013-08-04 13:41:00,
2013-08-04 06:46:00,81.5,61.0,27.38,East,90,0.0,3.0,50,0.00,,,0.00,Rainwise IP-100,2013-08-04 13:46:00,
2013-08-04 06:51:00,81.8,60.0,27.38,East,90,0.0,1.0,49,0.00,,,0.00,Rainwise IP-100,2013-08-04 13:51:00,
2013-08-04 06:56:00,82.0,60.0,27.37,ESE,112,0.0,4.0,48,0.00,,,0.00,Rainwise IP-100,2013-08-04 13:56:00,
2013-08-04 07:01:00,82.1,60.0,27.38,SSW,202,0.0,0.0,48,0.00,,,0.00,Rainwise IP-100,2013-08-04 14:01:00,
2013-08-04 07:06:00,82.2,60.0,27.39,SSW,202,0.0,0.0,48,0.00,,,0.00,Rainwise IP-100,2013-08-04 14:06:00,
2013-08-04 07:11:00,82.3,60.0,27.39,SSW,202,0.0,0.0,48,0.00,,,0.00,Rainwise IP-100,2013-08-04 14:11:00,
2013-08-04 07:16:00,82.4,61.0,27.39,SSW,202,0.0,0.0,48,0.00,,,0.00,Rainwise IP-100,2013-08-04 14:16:00,
2013-08-04 07:21:00,82.7,61.0,27.39,SSE,157,0.0,2.0,48,0.00,,,0.00,Rainwise IP-100,2013-08-04 14:21:00,
2013-08-04 07:26:00,83.5,61.0,27.39,North,360,1.9,4.0,47,0.00,,,0.00,Rainwise IP-100,2013-08-04 14:26:00,
2013-08-04 07:31:00,84.3,61.0,27.39,NNW,337,0.0,2.0,46,0.00,,,0.00,Rainwise IP-100,2013-08-04 14:31:00,
2013-08-04 07:36:00,84.8,61.0,27.39,NNW,337,0.0,4.0,45,0.00,,,0.00,Rainwise IP-100,2013-08-04 14:36:00,
2013-08-04 07:41:00,86.0,61.0,27.39,ENE,67,3.3,3.3,44,0.00,,,0.00,Rainwise IP-100,2013-08-04 14:41:00,
2013-08-04 07:46:00,87.0,61.0,27.39,NNE,22,0.0,4.0,42,0.00,,,0.00,Rainwise IP-100,2013-08-04 14:46:00,
2013-08-04 07:51:00,87.7,61.0,27.39,ENE,67,0.0,6.0,41,0.00,,,0.00,Rainwise IP-100,2013-08-04 14:51:00,
2013-08-04 07:56:00,88.1,61.0,27.39,NNW,337,4.2,5.0,40,0.00,,,0.00,Rainwise IP-100,2013-08-04 14:56:00,
2013-08-04 08:01:00,88.3,61.0,27.39,NNE,22,1.2,7.0,40,0.00,,,0.00,Rainwise IP-100,2013-08-04 15:01:00,
2013-08-04 08:06:00,88.1,61.0,27.39,NNW,337,2.1,5.0,40,0.00,,,0.00,Rainwise IP-100,2013-08-04 15:06:00,
2013-08-04 08:11:00,87.6,60.0,27.39,NNE,22,0.0,3.0,40,0.00,,,0.00,Rainwise IP-100,2013-08-04 15:11:00,
2013-08-04 08:16:00,87.3,60.0,27.39,North,360,0.0,2.0,40,0.00,,,0.00,Rainwise IP-100,2013-08-04 15:16:00,
2013-08-04 08:21:00,87.7,60.0,27.39,North,360,0.0,0.0,39,0.00,,,0.00,Rainwise IP-100,2013-08-04 15:21:00,
2013-08-04 08:26:00,88.6,60.0,27.39,SW,225,0.0,3.0,38,0.00,,,0.00,Rainwise IP-100,2013-08-04 15:26:00,
2013-08-04 08:31:00,89.2,60.0,27.39,SSE,157,0.0,2.0,38,0.00,,,0.00,Rainwise IP-100,2013-08-04 15:31:00,
2013-08-04 08:36:00,89.2,60.0,27.40,SSW,202,0.0,1.0,38,0.00,,,0.00,Rainwise IP-100,2013-08-04 15:36:00,
2013-08-04 08:41:00,88.8,60.0,27.40,West,270,1.2,3.0,38,0.00,,,0.00,Rainwise IP-100,2013-08-04 15:41:00,
2013-08-04 08:46:00,88.3,59.0,27.40,West,270,1.6,3.0,38,0.00,,,0.00,Rainwise IP-100,2013-08-04 15:46:00,
2013-08-04 08:51:00,88.2,59.0,27.40,WSW,247,2.6,2.6,38,0.00,,,0.00,Rainwise IP-100,2013-08-04 15:51:00,
2013-08-04 08:56:00,88.4,59.0,27.41,West,270,1.4,2.0,37,0.00,,,0.00,Rainwise IP-100,2013-08-04 15:56:00,
2013-08-04 09:01:00,88.4,59.0,27.41,WNW,292,0.0,4.0,37,0.00,,,0.00,Rainwise IP-100,2013-08-04 16:01:00,
2013-08-04 09:06:00,88.3,59.0,27.40,WNW,292,0.0,3.0,37,0.00,,,0.00,Rainwise IP-100,2013-08-04 16:06:00,
2013-08-04 09:11:00,88.5,59.0,27.41,North,360,0.0,1.0,37,0.00,,,0.00,Rainwise IP-100,2013-08-04 16:11:00,
2013-08-04 09:16:00,88.9,59.0,27.41,NW,315,0.0,1.0,36,0.00,,,0.00,Rainwise IP-100,2013-08-04 16:16:00,
2013-08-04 09:21:00,89.6,59.0,27.41,WSW,247,0.0,3.0,36,0.00,,,0.00,Rainwise IP-100,2013-08-04 16:21:00,
2013-08-04 09:26:00,90.3,59.0,27.41,SSW,202,0.0,2.0,35,0.00,,,0.00,Rainwise IP-100,2013-08-04 16:26:00,
2013-08-04 09:31:00,90.8,59.0,27.40,South,180,0.0,5.0,34,0.00,,,0.00,Rainwise IP-100,2013-08-04 16:31:00,
2013-08-04 09:36:00,91.1,59.0,27.40,SW,225,1.9,3.0,34,0.00,,,0.00,Rainwise IP-100,2013-08-04 16:36:00,
2013-08-04 09:41:00,91.4,59.0,27.40,SW,225,1.9,5.0,34,0.00,,,0.00,Rainwise IP-100,2013-08-04 16:41:00,
2013-08-04 09:46:00,91.9,59.0,27.40,SW,225,3.3,4.0,33,0.00,,,0.00,Rainwise IP-100,2013-08-04 16:46:00,
2013-08-04 09:51:00,92.3,59.0,27.40,SSW,202,1.4,9.0,33,0.00,,,0.00,Rainwise IP-100,2013-08-04 16:51:00,
2013-08-04 09:56:00,92.4,59.0,27.40,SW,225,1.2,4.0,33,0.00,,,0.00,Rainwise IP-100,2013-08-04 16:56:00,
2013-08-04 10:01:00,92.1,59.0,27.39,WSW,247,0.0,3.0,33,0.00,,,0.00,Rainwise IP-100,2013-08-04 17:01:00,
2013-08-04 10:06:00,91.8,59.0,27.39,WSW,247,2.8,4.0,34,0.00,,,0.00,Rainwise IP-100,2013-08-04 17:06:00,
2013-08-04 10:11:00,91.2,59.0,27.39,SW,225,2.1,7.0,34,0.00,,,0.00,Rainwise IP-100,2013-08-04 17:11:00,
2013-08-04 10:16:00,90.6,59.0,27.39,SSW,202,1.6,5.0,35,0.00,,,0.00,Rainwise IP-100,2013-08-04 17:16:00,
2013-08-04 10:21:00,90.9,59.0,27.39,WSW,247,1.2,5.0,35,0.00,,,0.00,Rainwise IP-100,2013-08-04 17:21:00,
2013-08-04 10:26:00,91.1,59.0,27.39,WSW,247,2.6,4.0,35,0.00,,,0.00,Rainwise IP-100,2013-08-04 17:26:00,
2013-08-04 10:31:00,91.1,59.0,27.39,SSW,202,2.1,3.0,35,0.00,,,0.00,Rainwise IP-100,2013-08-04 17:31:00,
2013-08-04 10:36:00,91.4,59.0,27.39,SSW,202,3.0,4.0,34,0.00,,,0.00,Rainwise IP-100,2013-08-04 17:36:00,
2013-08-04 10:41:00,91.5,59.0,27.38,SSW,202,1.4,3.0,34,0.00,,,0.00,Rainwise IP-100,2013-08-04 17:41:00,
2013-08-04 10:46:00,91.4,59.0,27.39,SSE,157,2.8,4.0,34,0.00,,,0.00,Rainwise IP-100,2013-08-04 17:46:00,
2013-08-04 10:51:00,91.6,59.0,27.39,SSW,202,2.1,3.0,34,0.00,,,0.00,Rainwise IP-100,2013-08-04 17:51:00,
2013-08-04 10:56:00,91.5,58.0,27.39,South,180,2.6,5.0,33,0.00,,,0.00,Rainwise IP-100,2013-08-04 17:56:00,
2013-08-04 11:01:00,91.3,58.0,27.39,ESE,112,2.1,7.0,33,0.00,,,0.00,Rainwise IP-100,2013-08-04 18:01:00,
2013-08-04 11:06:00,91.0,58.0,27.38,WSW,247,1.6,6.0,33,0.00,,,0.00,Rainwise IP-100,2013-08-04 18:06:00,
2013-08-04 11:11:00,90.6,57.0,27.39,SSE,157,1.4,4.0,33,0.00,,,0.00,Rainwise IP-100,2013-08-04 18:11:00,
2013-08-04 11:16:00,90.5,57.0,27.39,SSW,202,1.4,4.0,33,0.00,,,0.00,Rainwise IP-100,2013-08-04 18:16:00,
2013-08-04 11:21:00,90.6,57.0,27.38,South,180,2.3,4.0,33,0.00,,,0.00,Rainwise IP-100,2013-08-04 18:21:00,
2013-08-04 11:26:00,90.5,57.0,27.38,SSW,202,1.4,7.0,33,0.00,,,0.00,Rainwise IP-100,2013-08-04 18:26:00,
2013-08-04 11:31:00,90.2,57.0,27.38,SW,225,1.4,6.0,33,0.00,,,0.00,Rainwise IP-100,2013-08-04 18:31:00,
2013-08-04 11:36:00,89.8,57.0,27.38,South,180,0.0,4.0,33,0.00,,,0.00,Rainwise IP-100,2013-08-04 18:36:00,
2013-08-04 11:41:00,89.6,57.0,27.38,South,180,0.0,2.0,34,0.00,,,0.00,Rainwise IP-100,2013-08-04 18:41:00,
2013-08-04 11:46:00,89.5,57.0,27.38,SSE,157,1.9,5.0,34,0.00,,,0.00,Rainwise IP-100,2013-08-04 18:46:00,
2013-08-04 11:51:00,89.5,56.0,27.38,SSW,202,1.9,6.0,33,0.00,,,0.00,Rainwise IP-100,2013-08-04 18:51:00,
2013-08-04 11:56:00,89.7,57.0,27.38,SSE,157,4.7,5.0,33,0.00,,,0.00,Rainwise IP-100,2013-08-04 18:56:00,
2013-08-04 12:01:00,89.9,57.0,27.38,SW,225,1.2,6.0,33,0.00,,,0.00,Rainwise IP-100,2013-08-04 19:01:00,
2013-08-04 12:06:00,90.2,57.0,27.37,South,180,0.0,3.0,33,0.00,,,0.00,Rainwise IP-100,2013-08-04 19:06:00,
2013-08-04 12:11:00,90.8,57.0,27.38,South,180,0.0,3.0,32,0.00,,,0.00,Rainwise IP-100,2013-08-04 19:11:00,
2013-08-04 12:16:00,91.4,56.0,27.38,ESE,112,1.2,5.0,31,0.00,,,0.00,Rainwise IP-100,2013-08-04 19:16:00,
2013-08-04 12:21:00,91.8,57.0,27.38,West,270,0.0,3.0,31,0.00,,,0.00,Rainwise IP-100,2013-08-04 19:21:00,
2013-08-04 12:26:00,92.4,56.0,27.37,SSE,157,0.0,4.0,30,0.00,,,0.00,Rainwise IP-100,2013-08-04 19:26:00,
2013-08-04 12:31:00,92.4,56.0,27.36,ESE,112,0.0,4.0,30,0.00,,,0.00,Rainwise IP-100,2013-08-04 19:31:00,
2013-08-04 12:36:00,92.5,56.0,27.36,NNE,22,1.2,2.0,30,0.00,,,0.00,Rainwise IP-100,2013-08-04 19:36:00,
2013-08-04 12:41:00,93.6,57.0,27.36,NNE,22,0.0,3.0,30,0.00,,,0.00,Rainwise IP-100,2013-08-04 19:41:00,
2013-08-04 12:46:00,94.4,57.0,27.36,ESE,112,1.2,6.0,29,0.00,,,0.00,Rainwise IP-100,2013-08-04 19:46:00,
2013-08-04 12:51:00,94.7,56.0,27.36,ENE,67,0.0,3.0,28,0.00,,,0.00,Rainwise IP-100,2013-08-04 19:51:00,
2013-08-04 12:56:00,94.4,56.0,27.36,ESE,112,1.9,7.0,28,0.00,,,0.00,Rainwise IP-100,2013-08-04 19:56:00,
2013-08-04 13:01:00,94.1,56.0,27.36,SSE,157,3.3,5.0,28,0.00,,,0.00,Rainwise IP-100,2013-08-04 20:01:00,
2013-08-04 13:06:00,94.2,55.0,27.36,SSE,157,1.6,4.0,27,0.00,,,0.00,Rainwise IP-100,2013-08-04 20:06:00,
2013-08-04 13:11:00,93.5,56.0,27.35,SSE,157,1.6,6.0,28,0.00,,,0.00,Rainwise IP-100,2013-08-04 20:11:00,
2013-08-04 13:16:00,93.1,55.0,27.35,SSE,157,0.0,3.0,28,0.00,,,0.00,Rainwise IP-100,2013-08-04 20:16:00,
2013-08-04 13:21:00,93.5,56.0,27.35,SSE,157,0.0,3.0,28,0.00,,,0.00,Rainwise IP-100,2013-08-04 20:21:00,
2013-08-04 13:26:00,93.4,55.0,27.35,SW,225,0.0,1.0,28,0.00,,,0.00,Rainwise IP-100,2013-08-04 20:26:00,
2013-08-04 13:31:00,92.7,54.0,27.35,ESE,112,0.0,2.0,28,0.00,,,0.00,Rainwise IP-100,2013-08-04 20:31:00,
2013-08-04 13:36:00,92.5,56.0,27.35,ESE,112,0.0,4.0,29,0.00,,,0.00,Rainwise IP-100,2013-08-04 20:36:00,
2013-08-04 13:41:00,92.8,54.0,27.35,ESE,112,0.0,1.0,28,0.00,,,0.00,Rainwise IP-100,2013-08-04 20:41:00,
2013-08-04 13:46:00,92.7,54.0,27.34,SSE,157,2.8,3.0,28,0.00,,,0.00,Rainwise IP-100,2013-08-04 20:46:00,
2013-08-04 13:51:00,92.0,55.0,27.35,ESE,112,1.2,3.0,29,0.00,,,0.00,Rainwise IP-100,2013-08-04 20:51:00,
2013-08-04 13:56:00,92.1,55.0,27.35,SSE,157,2.3,4.0,29,0.00,,,0.00,Rainwise IP-100,2013-08-04 20:56:00,
2013-08-04 14:01:00,92.4,55.0,27.35,South,180,1.2,3.0,29,0.00,,,0.00,Rainwise IP-100,2013-08-04 21:01:00,
2013-08-04 14:06:00,92.6,56.0,27.34,West,270,0.0,1.0,29,0.00,,,0.00,Rainwise IP-100,2013-08-04 21:06:00,
2013-08-04 14:11:00,92.7,54.0,27.34,SE,135,4.4,4.4,28,0.00,,,0.00,Rainwise IP-100,2013-08-04 21:11:00,
2013-08-04 14:16:00,92.6,54.0,27.34,SE,135,0.0,4.0,28,0.00,,,0.00,Rainwise IP-100,2013-08-04 21:16:00,
2013-08-04 14:21:00,92.4,54.0,27.34,SSE,157,0.0,5.0,28,0.00,,,0.00,Rainwise IP-100,2013-08-04 21:21:00,
2013-08-04 14:26:00,92.1,54.0,27.34,SSE,157,1.2,4.0,28,0.00,,,0.00,Rainwise IP-100,2013-08-04 21:26:00,
2013-08-04 14:31:00,91.7,54.0,27.34,ESE,112,1.6,2.0,28,0.00,,,0.00,Rainwise IP-100,2013-08-04 21:31:00,
2013-08-04 14:36:00,91.6,54.0,27.33,SSE,157,3.0,3.0,28,0.00,,,0.00,Rainwise IP-100,2013-08-04 21:36:00,
2013-08-04 14:41:00,91.7,54.0,27.33,SSE,157,0.0,3.0,28,0.00,,,0.00,Rainwise IP-100,2013-08-04 21:41:00,
2013-08-04 14:46:00,91.9,54.0,27.33,SSE,157,2.6,2.6,28,0.00,,,0.00,Rainwise IP-100,2013-08-04 21:46:00,
2013-08-04 14:51:00,91.9,54.0,27.33,SSE,157,0.0,3.0,28,0.00,,,0.00,Rainwise IP-100,2013-08-04 21:51:00,
2013-08-04 14:56:00,91.8,55.0,27.33,ESE,112,0.0,3.0,29,0.00,,,0.00,Rainwise IP-100,2013-08-04 21:56:00,
2013-08-04 15:01:00,91.5,56.0,27.33,ESE,112,0.0,2.0,30,0.00,,,0.00,Rainwise IP-100,2013-08-04 22:01:00,
2013-08-04 15:06:00,91.3,54.0,27.33,ESE,112,0.0,2.0,29,0.00,,,0.00,Rainwise IP-100,2013-08-04 22:06:00,
2013-08-04 15:11:00,91.5,54.0,27.32,ESE,112,0.0,0.0,28,0.00,,,0.00,Rainwise IP-100,2013-08-04 22:11:00,
2013-08-04 15:16:00,91.8,54.0,27.32,SSE,157,2.6,3.0,28,0.00,,,0.00,Rainwise IP-100,2013-08-04 22:16:00,
2013-08-04 15:21:00,92.1,54.0,27.32,SSE,157,1.2,2.0,28,0.00,,,0.00,Rainwise IP-100,2013-08-04 22:21:00,
2013-08-04 15:26:00,92.3,53.0,27.32,SSE,157,0.0,3.0,27,0.00,,,0.00,Rainwise IP-100,2013-08-04 22:26:00,
2013-08-04 15:31:00,92.4,53.0,27.31,SSE,157,0.0,3.0,27,0.00,,,0.00,Rainwise IP-100,2013-08-04 22:31:00,
2013-08-04 15:36:00,92.0,53.0,27.31,SSE,157,0.0,1.0,27,0.00,,,0.00,Rainwise IP-100,2013-08-04 22:36:00,
2013-08-04 15:41:00,91.9,53.0,27.31,SSW,202,0.0,0.0,27,0.00,,,0.00,Rainwise IP-100,2013-08-04 22:41:00,
2013-08-04 15:46:00,92.5,54.0,27.31,West,270,1.2,4.0,27,0.00,,,0.00,Rainwise IP-100,2013-08-04 22:46:00,
2013-08-04 15:51:00,92.7,54.0,27.31,WNW,292,1.2,4.0,27,0.00,,,0.00,Rainwise IP-100,2013-08-04 22:51:00,
2013-08-04 15:56:00,93.0,54.0,27.30,SW,225,1.6,2.0,27,0.00,,,0.00,Rainwise IP-100,2013-08-04 22:56:00,
2013-08-04 16:01:00,93.1,54.0,27.30,WNW,292,1.4,3.0,27,0.00,,,0.00,Rainwise IP-100,2013-08-04 23:01:00,
2013-08-04 16:06:00,93.1,54.0,27.31,WNW,292,0.0,2.0,27,0.00,,,0.00,Rainwise IP-100,2013-08-04 23:06:00,
2013-08-04 16:11:00,93.1,54.0,27.30,WNW,292,0.0,3.0,27,0.00,,,0.00,Rainwise IP-100,2013-08-04 23:11:00,
2013-08-04 16:16:00,93.1,54.0,27.31,SSE,157,2.3,2.3,27,0.00,,,0.00,Rainwise IP-100,2013-08-04 23:16:00,
2013-08-04 16:21:00,93.4,54.0,27.30,SSE,157,0.0,3.0,27,0.00,,,0.00,Rainwise IP-100,2013-08-04 23:21:00,
2013-08-04 16:26:00,93.8,54.0,27.30,West,270,0.0,3.0,26,0.00,,,0.00,Rainwise IP-100,2013-08-04 23:26:00,
2013-08-04 16:31:00,94.0,53.0,27.30,West,270,2.8,2.8,25,0.00,,,0.00,Rainwise IP-100,2013-08-04 23:31:00,
2013-08-04 16:36:00,94.0,52.0,27.30,WNW,292,1.2,3.0,24,0.00,,,0.00,Rainwise IP-100,2013-08-04 23:36:00,
2013-08-04 16:41:00,93.9,52.0,27.29,WNW,292,0.0,1.0,24,0.00,,,0.00,Rainwise IP-100,2013-08-04 23:41:00,
2013-08-04 16:46:00,93.8,53.0,27.30,WNW,292,0.0,0.0,25,0.00,,,0.00,Rainwise IP-100,2013-08-04 23:46:00,
2013-08-04 16:51:00,93.7,53.0,27.29,SSE,157,1.4,1.4,25,0.00,,,0.00,Rainwise IP-100,2013-08-04 23:51:00,
2013-08-04 16:56:00,93.6,51.0,27.29,SSE,157,1.4,2.0,24,0.00,,,0.00,Rainwise IP-100,2013-08-04 23:56:00,
2013-08-04 17:01:00,93.7,51.0,27.29,SSE,157,2.1,2.1,24,0.00,,,0.00,Rainwise IP-100,2013-08-05 00:01:00,
2013-08-04 17:06:00,94.0,52.0,27.29,SSE,157,1.6,3.0,24,0.00,,,0.00,Rainwise IP-100,2013-08-05 00:06:00,
2013-08-04 17:11:00,93.9,52.0,27.29,SSE,157,0.0,3.0,24,0.00,,,0.00,Rainwise IP-100,2013-08-05 00:11:00,
2013-08-04 17:16:00,93.4,51.0,27.29,SSE,157,0.0,1.0,24,0.00,,,0.00,Rainwise IP-100,2013-08-05 00:16:00,
2013-08-04 17:21:00,93.2,52.0,27.29,SSE,157,0.0,1.0,25,0.00,,,0.00,Rainwise IP-100,2013-08-05 00:21:00,
2013-08-04 17:26:00,93.3,52.0,27.29,SSE,157,0.0,0.0,25,0.00,,,0.00,Rainwise IP-100,2013-08-05 00:26:00,
2013-08-04 17:31:00,93.4,53.0,27.29,South,180,0.0,2.0,25,0.00,,,0.00,Rainwise IP-100,2013-08-05 00:31:00,
2013-08-04 17:36:00,93.4,53.0,27.29,SSE,157,0.0,1.0,25,0.00,,,0.00,Rainwise IP-100,2013-08-05 00:36:00,
2013-08-04 17:41:00,93.3,52.0,27.29,SSE,157,0.0,0.0,25,0.00,,,0.00,Rainwise IP-100,2013-08-05 00:41:00,
2013-08-04 17:46:00,93.7,53.0,27.29,SSE,157,0.0,3.0,25,0.00,,,0.00,Rainwise IP-100,2013-08-05 00:46:00,
2013-08-04 17:51:00,94.5,52.0,27.29,WSW,247,0.0,2.0,24,0.00,,,0.00,Rainwise IP-100,2013-08-05 00:51:00,
2013-08-04 17:56:00,95.1,53.0,27.29,WSW,247,0.0,2.0,24,0.00,,,0.00,Rainwise IP-100,2013-08-05 00:56:00,
2013-08-04 18:01:00,95.5,52.0,27.29,WSW,247,0.0,1.0,23,0.00,,,0.00,Rainwise IP-100,2013-08-05 01:01:00,
2013-08-04 18:06:00,95.7,52.0,27.29,WSW,247,0.0,0.0,23,0.00,,,0.00,Rainwise IP-100,2013-08-05 01:06:00,
2013-08-04 18:11:00,95.1,53.0,27.29,WSW,247,0.0,0.0,24,0.00,,,0.00,Rainwise IP-100,2013-08-05 01:11:00,
2013-08-04 18:16:00,93.9,52.0,27.29,WSW,247,0.0,0.0,24,0.00,,,0.00,Rainwise IP-100,2013-08-05 01:16:00,
2013-08-04 18:21:00,93.2,52.0,27.29,WSW,247,0.0,0.0,25,0.00,,,0.00,Rainwise IP-100,2013-08-05 01:21:00,
2013-08-04 18:26:00,92.9,53.0,27.29,WSW,247,0.0,0.0,26,0.00,,,0.00,Rainwise IP-100,2013-08-05 01:26:00,
2013-08-04 18:31:00,92.3,53.0,27.29,WSW,247,0.0,0.0,27,0.00,,,0.00,Rainwise IP-100,2013-08-05 01:31:00,
2013-08-04 18:36:00,91.3,53.0,27.29,WSW,247,0.0,0.0,28,0.00,,,0.00,Rainwise IP-100,2013-08-05 01:36:00,
2013-08-04 18:41:00,90.2,53.0,27.29,WSW,247,0.0,0.0,28,0.00,,,0.00,Rainwise IP-100,2013-08-05 01:41:00,
2013-08-04 18:46:00,89.3,53.0,27.29,WSW,247,0.0,0.0,29,0.00,,,0.00,Rainwise IP-100,2013-08-05 01:46:00,
2013-08-04 18:51:00,88.5,53.0,27.29,WSW,247,0.0,0.0,30,0.00,,,0.00,Rainwise IP-100,2013-08-05 01:51:00,
2013-08-04 18:56:00,87.9,54.0,27.29,WSW,247,0.0,0.0,31,0.00,,,0.00,Rainwise IP-100,2013-08-05 01:56:00,
2013-08-04 19:01:00,87.3,53.0,27.29,WSW,247,0.0,0.0,31,0.00,,,0.00,Rainwise IP-100,2013-08-05 02:01:00,
2013-08-04 19:06:00,86.4,54.0,27.29,WSW,247,0.0,0.0,33,0.00,,,0.00,Rainwise IP-100,2013-08-05 02:06:00,
2013-08-04 19:11:00,85.6,54.0,27.30,WSW,247,0.0,0.0,34,0.00,,,0.00,Rainwise IP-100,2013-08-05 02:11:00,
2013-08-04 19:16:00,85.0,53.0,27.30,WSW,247,0.0,0.0,34,0.00,,,0.00,Rainwise IP-100,2013-08-05 02:16:00,
2013-08-04 19:21:00,84.4,53.0,27.29,WSW,247,0.0,0.0,34,0.00,,,0.00,Rainwise IP-100,2013-08-05 02:21:00,
2013-08-04 19:26:00,83.8,53.0,27.30,WSW,247,0.0,0.0,35,0.00,,,0.00,Rainwise IP-100,2013-08-05 02:26:00,
2013-08-04 19:31:00,83.3,53.0,27.30,WSW,247,0.0,0.0,36,0.00,,,0.00,Rainwise IP-100,2013-08-05 02:31:00,
2013-08-04 19:36:00,82.9,54.0,27.30,WSW,247,0.0,0.0,37,0.00,,,0.00,Rainwise IP-100,2013-08-05 02:36:00,
2013-08-04 19:41:00,82.5,54.0,27.30,WSW,247,0.0,0.0,38,0.00,,,0.00,Rainwise IP-100,2013-08-05 02:41:00,
2013-08-04 19:46:00,82.2,54.0,27.30,WSW,247,0.0,0.0,38,0.00,,,0.00,Rainwise IP-100,2013-08-05 02:46:00,
2013-08-04 19:51:00,81.9,54.0,27.31,WSW,247,0.0,0.0,39,0.00,,,0.00,Rainwise IP-100,2013-08-05 02:51:00,
2013-08-04 19:56:00,81.5,54.0,27.31,WSW,247,0.0,0.0,39,0.00,,,0.00,Rainwise IP-100,2013-08-05 02:56:00,
2013-08-04 20:01:00,81.1,54.0,27.32,WSW,247,0.0,0.0,40,0.00,,,0.00,Rainwise IP-100,2013-08-05 03:01:00,
2013-08-04 20:06:00,80.7,54.0,27.32,WSW,247,0.0,0.0,41,0.00,,,0.00,Rainwise IP-100,2013-08-05 03:06:00,
2013-08-04 20:11:00,80.5,54.0,27.32,WSW,247,0.0,0.0,41,0.00,,,0.00,Rainwise IP-100,2013-08-05 03:11:00,
2013-08-04 20:16:00,80.2,54.0,27.32,WSW,247,0.0,0.0,41,0.00,,,0.00,Rainwise IP-100,2013-08-05 03:16:00,
2013-08-04 20:21:00,79.8,54.0,27.32,WSW,247,0.0,0.0,42,0.00,,,0.00,Rainwise IP-100,2013-08-05 03:21:00,
2013-08-04 20:26:00,79.2,54.0,27.32,WSW,247,0.0,0.0,42,0.00,,,0.00,Rainwise IP-100,2013-08-05 03:26:00,
2013-08-04 20:31:00,78.5,55.0,27.33,WSW,247,0.0,0.0,44,0.00,,,0.00,Rainwise IP-100,2013-08-05 03:31:00,
2013-08-04 20:36:00,78.1,54.0,27.33,SSE,157,0.0,2.0,44,0.00,,,0.00,Rainwise IP-100,2013-08-05 03:36:00,
2013-08-04 20:41:00,77.7,54.0,27.33,SSE,157,0.0,0.0,45,0.00,,,0.00,Rainwise IP-100,2013-08-05 03:41:00,
2013-08-04 20:46:00,77.3,54.0,27.33,SSE,157,0.0,0.0,45,0.00,,,0.00,Rainwise IP-100,2013-08-05 03:46:00,
2013-08-04 20:51:00,77.0,54.0,27.33,SSE,157,0.0,0.0,46,0.00,,,0.00,Rainwise IP-100,2013-08-05 03:51:00,
2013-08-04 20:56:00,76.6,54.0,27.33,SSE,157,0.0,0.0,46,0.00,,,0.00,Rainwise IP-100,2013-08-05 03:56:00,
2013-08-04 21:01:00,76.3,54.0,27.33,SSE,157,0.0,0.0,46,0.00,,,0.00,Rainwise IP-100,2013-08-05 04:01:00,
2013-08-04 21:06:00,75.9,54.0,27.33,SSE,157,0.0,0.0,47,0.00,,,0.00,Rainwise IP-100,2013-08-05 04:06:00,
2013-08-04 21:11:00,75.6,54.0,27.32,SSE,157,0.0,0.0,47,0.00,,,0.00,Rainwise IP-100,2013-08-05 04:11:00,
2013-08-04 21:16:00,75.5,54.0,27.33,SSE,157,0.0,0.0,48,0.00,,,0.00,Rainwise IP-100,2013-08-05 04:16:00,
2013-08-04 21:21:00,75.5,54.0,27.33,SSE,157,0.0,0.0,48,0.00,,,0.00,Rainwise IP-100,2013-08-05 04:21:00,
2013-08-04 21:26:00,75.7,54.0,27.34,SSE,157,0.0,0.0,48,0.00,,,0.00,Rainwise IP-100,2013-08-05 04:26:00,
2013-08-04 21:31:00,76.1,54.0,27.33,SSE,157,0.0,0.0,48,0.00,,,0.00,Rainwise IP-100,2013-08-05 04:31:00,
2013-08-04 21:36:00,76.2,55.0,27.34,SSE,157,0.0,0.0,48,0.00,,,0.00,Rainwise IP-100,2013-08-05 04:36:00,
2013-08-04 21:41:00,76.3,55.0,27.33,SSE,157,0.0,0.0,48,0.00,,,0.00,Rainwise IP-100,2013-08-05 04:41:00,
2013-08-04 21:46:00,76.3,55.0,27.34,SSE,157,0.0,0.0,48,0.00,,,0.00,Rainwise IP-100,2013-08-05 04:46:00,
2013-08-04 21:51:00,76.1,54.0,27.34,SSE,157,0.0,0.0,48,0.00,,,0.00,Rainwise IP-100,2013-08-05 04:51:00,
2013-08-04 21:56:00,75.9,54.0,27.33,SSE,157,0.0,0.0,48,0.00,,,0.00,Rainwise IP-100,2013-08-05 04:56:00,
2013-08-04 22:01:00,76.0,54.0,27.34,ESE,112,0.0,0.0,48,0.00,,,0.00,Rainwise IP-100,2013-08-05 05:01:00,
2013-08-04 22:06:00,76.5,55.0,27.33,ESE,112,0.0,0.0,48,0.00,,,0.00,Rainwise IP-100,2013-08-05 05:06:00,
2013-08-04 22:11:00,77.0,55.0,27.33,ESE,112,0.0,0.0,47,0.00,,,0.00,Rainwise IP-100,2013-08-05 05:11:00,
2013-08-04 22:16:00,77.0,55.0,27.33,ESE,112,0.0,0.0,47,0.00,,,0.00,Rainwise IP-100,2013-08-05 05:16:00,
2013-08-04 22:21:00,77.1,55.0,27.33,ESE,112,0.0,0.0,47,0.00,,,0.00,Rainwise IP-100,2013-08-05 05:21:00,
2013-08-04 22:26:00,77.0,55.0,27.33,ESE,112,0.0,0.0,47,0.00,,,0.00,Rainwise IP-100,2013-08-05 05:26:00,
2013-08-04 22:29:00,76.9,55.0,27.33,ESE,112,0.0,0.0,47,0.00,,,0.00,Rainwise IP-100,2013-08-05 05:29:00,
2013-08-04 22:34:00,76.8,55.0,27.33,ESE,112,0.0,0.0,47,0.00,,,0.00,Rainwise IP-100,2013-08-05 05:34:00,
2013-08-04 22:37:00,76.7,55.0,27.33,ESE,112,0.0,0.0,47,0.00,,,0.00,Rainwise IP-100,2013-08-05 05:37:00,
2013-08-04 22:42:00,76.4,54.0,27.32,ESE,112,0.0,0.0,47,0.00,,,0.00,Rainwise IP-100,2013-08-05 05:42:00,
2013-08-04 22:47:00,76.1,54.0,27.33,ESE,112,0.0,0.0,48,0.00,,,0.00,Rainwise IP-100,2013-08-05 05:47:00,
2013-08-04 22:52:00,75.7,54.0,27.33,ESE,112,0.0,0.0,48,0.00,,,0.00,Rainwise IP-100,2013-08-05 05:52:00,
2013-08-04 22:57:00,75.4,55.0,27.33,ESE,112,0.0,0.0,49,0.00,,,0.00,Rainwise IP-100,2013-08-05 05:57:00,
2013-08-04 23:02:00,75.1,54.0,27.33,ESE,112,0.0,0.0,49,0.00,,,0.00,Rainwise IP-100,2013-08-05 06:02:00,
2013-08-04 23:07:00,74.6,55.0,27.33,ESE,112,0.0,0.0,50,0.00,,,0.00,Rainwise IP-100,2013-08-05 06:07:00,
2013-08-04 23:12:00,74.2,54.0,27.32,ESE,112,0.0,0.0,50,0.00,,,0.00,Rainwise IP-100,2013-08-05 06:12:00,
2013-08-04 23:17:00,73.9,54.0,27.32,ESE,112,0.0,0.0,51,0.00,,,0.00,Rainwise IP-100,2013-08-05 06:17:00,
2013-08-04 23:22:00,73.9,54.0,27.32,ESE,112,0.0,0.0,51,0.00,,,0.00,Rainwise IP-100,2013-08-05 06:22:00,
2013-08-04 23:27:00,73.7,54.0,27.33,ESE,112,0.0,0.0,51,0.00,,,0.00,Rainwise IP-100,2013-08-05 06:27:00,
2013-08-04 23:32:00,73.3,54.0,27.33,ESE,112,0.0,0.0,51,0.00,,,0.00,Rainwise IP-100,2013-08-05 06:32:00,
2013-08-04 23:37:00,72.8,54.0,27.32,ESE,112,0.0,0.0,52,0.00,,,0.00,Rainwise IP-100,2013-08-05 06:37:00,
2013-08-04 23:42:00,72.3,54.0,27.32,ESE,112,0.0,0.0,53,0.00,,,0.00,Rainwise IP-100,2013-08-05 06:42:00,
2013-08-04 23:47:00,72.2,54.0,27.32,ESE,112,0.0,1.0,54,0.00,,,0.00,Rainwise IP-100,2013-08-05 06:47:00,
2013-08-04 23:52:00,72.1,54.0,27.32,ESE,112,0.0,0.0,54,0.00,,,0.00,Rainwise IP-100,2013-08-05 06:52:00,
2013-08-04 23:57:00,71.9,54.0,27.33,ESE,112,0.0,0.0,54,0.00,,,0.00,Rainwise IP-100,2013-08-05 06:57:00,